Weather History for Bluefield, WV

Change the Weather History Date:

Sunday, February 17, 2013

  Actual Average Record
Temperature  
Mean Temperature 18 °F 38 °F  
Max Temperature 24 °F 46 °F 66 °F (2011)
Min Temperature 12 °F 29 °F -1 °F (1973)
Degree Days  
Heating Degree Days 47 27  
Month to date heating degree days 514 488  
Since 1 July heating degree days 3090 3208  
Cooling Degree Days 0 0  
Month to date cooling degree days 0 0  
Year to date cooling degree days 1 0  
Moisture  
Dew Point 5 °F    
Average Humidity 54    
Maximum Humidity 67    
Minimum Humidity 41    
Precipitation  
Precipitation 0.09 in 0.10 in 0.83 in (1982)
Month to date precipitation 1.03 1.64  
Year to date precipitation 7.03 4.54  
Snow  
Snow 1.80 in - - ()
Month to date snowfall 11.5  
Since 1 July snowfall 40.0  
Snow Depth 3.00 in    
Sea Level Pressure  
Sea Level Pressure 30.05 in    
Wind  
Wind Speed 12 mph (WNW)    
Max Wind Speed 23 mph    
Max Gust Speed 35 mph    
Visibility 6 miles    
Events Snow    
T = Trace of Precipitation, MM = Missing Value Source: NWS Daily Summary

Daily Weather History Graph

Daily Weather History Graph

Search for Another Location

Airport:

Trip Planner

Search our weather history database for the weather conditions in past years. The results will help you decide how hot, cold, wet, or windy it might be!

Date:

Astronomy

Feb. 17, 2013 Rise Set
Actual Time 7:11 AM EST 6:06 PM EST
Civil Twilight 6:44 AM EST 6:33 PM EST
Nautical Twilight 6:14 AM EST 7:04 PM EST
Astronomical Twilight 5:43 AM EST 7:34 PM EST
Moon 11:13 AM EST (2/17) 12:51 AM EST (2/17)
Length of Visible Light 11h 48m
Length of Day
10h 55m
Waxing Crescent, 49% of the Moon is Illuminated
Feb 17
Waxing Crescent
Feb 17
First Quarter
Feb 25
Full
Mar 4
Last Quarter
Mar 11
New

Hourly Weather History & Observations

Time (EST) Temp. Windchill Dew Point Humidity Pressure Visibility Wind Dir Wind Speed Gust Speed Precip Events Conditions
12:52 AM 19.0 °F 5.0 °F 6.1 °F 57% 29.96 in 9.0 mi WNW 15.0 mph 26.5 mph N/A   Overcast
1:52 AM 18.0 °F 4.8 °F 7.0 °F 62% 29.97 in 10.0 mi NW 12.7 mph 18.4 mph 0.00 in Snow Light Snow
2:52 AM 16.0 °F 1.1 °F 6.1 °F 65% 29.97 in 10.0 mi WNW 15.0 mph 25.3 mph 0.00 in   Overcast
3:36 AM 15.8 °F 6.1 °F 8.6 °F 73% 29.88 in 2.0 mi NW 6.9 mph 23.0 mph 0.00 in Snow Light Snow
3:47 AM 15.8 °F -0.2 °F 10.4 °F 79% 29.88 in 1.0 mi WNW 17.3 mph 31.1 mph 0.00 in Snow Light Snow
3:52 AM 15.1 °F -1.6 °F 9.0 °F 77% 29.98 in 1.0 mi NW 18.4 mph 31.1 mph 0.00 in Snow Light Snow
4:06 AM 15.8 °F 0.3 °F 8.6 °F 73% 29.89 in 0.8 mi WNW 16.1 mph 24.2 mph 0.00 in Snow Light Snow
4:36 AM 14.0 °F -2.5 °F 5.0 °F 67% 29.89 in 1.2 mi WNW 17.3 mph 34.5 mph 0.00 in Snow Light Snow
4:42 AM 14.0 °F -3.9 °F 3.2 °F 62% 29.90 in 2.5 mi WNW 20.7 mph 29.9 mph 0.00 in Snow Light Snow
4:44 AM 14.0 °F -3.0 °F 3.2 °F 62% 29.90 in 3.0 mi WNW 18.4 mph 29.9 mph 0.00 in Snow Light Snow
4:52 AM 14.0 °F -1.4 °F 1.9 °F 59% 30.00 in 5.0 mi NW 15.0 mph 29.9 mph 0.00 in   Scattered Clouds
5:52 AM 12.9 °F -2.8 °F 1.9 °F 62% 30.03 in 9.0 mi WNW 15.0 mph 26.5 mph 0.00 in   Overcast
6:52 AM 12.9 °F -0.9 °F 1.9 °F 62% 30.04 in 10.0 mi NW 11.5 mph 17.3 mph 0.00 in   Overcast
7:52 AM 12.0 °F -2.7 °F 1.9 °F 64% 30.07 in 10.0 mi NW 12.7 mph 23.0 mph N/A   Overcast
8:20 AM 12.2 °F -2.5 °F 3.2 °F 67% 29.97 in 4.0 mi WNW 12.7 mph 20.7 mph 0.00 in Snow Light Snow
8:52 AM 12.9 °F -0.9 °F 5.0 °F 71% 30.09 in 7.0 mi WNW 11.5 mph 18.4 mph 0.00 in Snow Light Snow
9:52 AM 15.1 °F 0.5 °F 5.0 °F 64% 30.10 in 5.0 mi WNW 13.8 mph 29.9 mph 0.00 in Snow Light Snow
10:15 AM 15.8 °F -0.2 °F 5.0 °F 62% 30.00 in 3.0 mi WNW 17.3 mph 29.9 mph 0.00 in Snow Light Snow
10:29 AM 15.8 °F 1.4 °F 5.0 °F 62% 30.01 in 2.0 mi NW 13.8 mph 23.0 mph 0.00 in Snow Light Snow
10:52 AM 16.0 °F 4.4 °F 7.0 °F 68% 30.13 in 2.0 mi NW 9.2 mph 19.6 mph 0.00 in Snow Light Snow
10:59 AM 15.8 °F 0.9 °F 6.8 °F 68% 30.02 in 1.0 mi NW 15.0 mph 23.0 mph 0.00 in Snow Light Snow
11:05 AM 15.8 °F 1.4 °F 8.6 °F 73% 30.02 in 0.8 mi WNW 13.8 mph 23.0 mph 0.00 in Snow Light Snow
11:31 AM 17.6 °F 5.7 °F 8.6 °F 68% 30.03 in 1.0 mi WNW 10.4 mph 24.2 mph 0.00 in Snow Light Snow
11:47 AM 17.6 °F 3.2 °F 8.6 °F 68% 30.03 in 1.8 mi NW 15.0 mph 25.3 mph 0.00 in Snow Light Snow
11:52 AM 18.0 °F 3.6 °F 8.1 °F 65% 30.13 in 3.0 mi WNW 15.0 mph 25.3 mph 0.00 in Snow Light Snow
12:52 PM 18.0 °F 3.6 °F 7.0 °F 62% 30.13 in 6.0 mi NW 15.0 mph 23.0 mph 0.00 in Snow Light Snow
1:20 PM 19.4 °F 4.5 °F 5.0 °F 54% 30.02 in 9.0 mi West 17.3 mph 29.9 mph 0.00 in   Overcast
1:52 PM 21.0 °F 8.6 °F 6.1 °F 53% 30.12 in 10.0 mi WNW 12.7 mph 19.6 mph 0.00 in   Overcast
2:52 PM 23.0 °F 9.6 °F 6.1 °F 48% 30.12 in 10.0 mi WNW 16.1 mph 25.3 mph N/A   Mostly Cloudy
3:52 PM 23.0 °F 9.6 °F 3.9 °F 44% 30.13 in 10.0 mi NW 16.1 mph 25.3 mph N/A   Clear
4:52 PM 23.0 °F 9.6 °F 3.0 °F 42% 30.14 in 10.0 mi WNW 16.1 mph 24.2 mph N/A   Clear
6:52 PM 21.9 °F 11.7 °F 1.9 °F 42% 30.19 in 10.0 mi WNW 9.2 mph - N/A   Clear
7:52 PM 21.0 °F 10.6 °F 1.9 °F 44% 30.21 in 10.0 mi WNW 9.2 mph - N/A   Clear
8:52 PM 19.9 °F 11.1 °F 1.9 °F 46% 30.22 in 10.0 mi WNW 6.9 mph - N/A   Clear
9:52 PM 19.0 °F 11.1 °F 1.9 °F 47% 30.24 in 10.0 mi West 5.8 mph - N/A   Clear
10:52 PM 19.0 °F 11.1 °F 1.9 °F 47% 30.24 in 10.0 mi West 5.8 mph - N/A   Clear